This is the latest recevied weather packets stored in our database for station/object K2BIG. If no packets are shown the sender has not sent any weather packets the latest 10 day(s).
| Time | Temp. | Humidity | Pressure | Rain* | Wind** | Luminosity | Snow |
|---|---|---|---|---|---|---|---|
| 1777906516 | 19.44° C | 43% | 1011.4 hPa | 0 mm | - | - | - |
| 1777906216 | 18.89° C | 41% | 1011.5 hPa | 0 mm | - | - | - |
| 1777905916 | 18.89° C | 43% | 1011.6 hPa | 0 mm | - | - | - |
| 1777905616 | 18.89° C | 43% | 1011.6 hPa | 0 mm | - | - | - |
| 1777905316 | 18.33° C | 44% | 1011.5 hPa | 0 mm | - | - | - |
| 1777905016 | 18.33° C | 41% | 1011.7 hPa | 0 mm | - | - | - |
| 1777904716 | 17.78° C | 44% | 1011.7 hPa | 0 mm | - | - | - |
| 1777904416 | 17.78° C | 44% | 1011.8 hPa | 0 mm | - | - | - |
| 1777904116 | 17.78° C | 44% | 1011.8 hPa | 0 mm | - | - | - |
| 1777903816 | 17.22° C | 45% | 1012 hPa | 0 mm | - | - | - |
| 1777903516 | 17.22° C | 45% | 1012.1 hPa | 0 mm | - | - | - |
| 1777903216 | 17.22° C | 45% | 1012.1 hPa | 0 mm | - | - | - |
| 1777902916 | 17.22° C | 46% | 1012.1 hPa | 0 mm | - | - | - |
| 1777902616 | 16.67° C | 47% | 1012.2 hPa | 0 mm | - | - | - |
| 1777902316 | 16.11° C | 46% | 1012.3 hPa | 0 mm | - | - | - |
| 1777902016 | 16.11° C | 46% | 1012.3 hPa | 0 mm | - | - | - |
| 1777901716 | 16.11° C | 46% | 1012.2 hPa | 0 mm | - | - | - |
| 1777901416 | 15.56° C | 48% | 1012.3 hPa | 0 mm | - | - | - |
| 1777901116 | 15.56° C | 47% | 1012.3 hPa | 0 mm | - | - | - |
| 1777900816 | 15° C | 48% | 1012.4 hPa | 0 mm | - | - | - |
| 1777900516 | 15° C | 49% | 1012.4 hPa | 0 mm | - | - | - |
| 1777900216 | 15° C | 47% | 1012.4 hPa | 0 mm | - | - | - |
| 1777899916 | 15° C | 49% | 1012.6 hPa | 0 mm | - | - | - |
| 1777899616 | 15° C | 51% | 1012.5 hPa | 0 mm | - | - | - |
| 1777899316 | 14.44° C | 51% | 1012.6 hPa | 0 mm | - | - | - |
* Rain latest hour (hover to see other rain measurements)
** Current wind speed in m/s (hover to see current wind gust speed)